User: anonymous   Login
Location: Donald C. Martin Observatory
(38.3885°N, 82.3916°W)
Time: 16:46:13
(UTC-04:00)
Language:

Cosmos 1484 Rocket - Orbit

View from above orbital plane
View from above orbital plane
View from above satellite
View from above satellite

Ground track
Ground track

The orbit data is extracted from the following two-line orbital elements,

1 14208U 83075B   15107.41790574  .00004015  00000-0  25544-3 0  9992
2 14208 097.3901 138.2211 0040373 341.6051 018.3715 15.08671750728047
Epoch (UTC): 17 April 2015 10:01:47
Eccentricity: 0.0040373
inclination: 97.3901°
perigee height: 512 km
apogee height: 568 km
right ascension of ascending node: 138.2211°
argument of perigee: 341.6051°
revolutions per day: 15.08671750
mean anomaly at epoch: 18.3715°
orbit number at epoch: 72804

The dashed part of the orbit path shows where the satellite is in the earth's shadow,  

DLR